Regional Weather Roundup
Issued by NWS Grand Forks, ND

Home | Current Version | Previous Version | Graphics & Text | Print | Product List | Glossary On
Versions: 1 2 3 4 5 6 7 8 9 10 11 12 13 14 15 16 17 18 19 20 21 22 23 24 25 26 27 28 29 30 31 32 33 34 35 36 37 38 39 40 41 42 43 44 45 46 47 48 49 50
000
ASUS43 KFGF 300731
RWRFGF
PRAIRIE TO PINES  WEATHER ROUNDUP
NATIONAL WEATHER SERVICE EASTERN NORTH DAKOTA/GRAND FORKS ND
200 AM CDT SUN AUG 30 2015

 **SATELLITE DATA USED TO AUGMENT SKY COVER AT AUTOMATED STATIONS**
 *****  WEATHER ACROSS EASTERN NORTH DAKOTA  *****

CITY           SKY/WX    TMP DP  RH WIND       PRES   REMARKS
GRAND FORKS    PTCLDY    68  66  93 S9        29.78F
GRAND FRKS AFB PTCLDY    69  68  97 S9        29.78F
GRAND FRKS NWS   N/A     66 N/A N/A S10         N/A
DEVILS LAKE    CLOUDY    72  63  73 SE6       29.77F
FARGO          PTCLDY    68  64  87 S12       29.84F
WAHPETON ARPT  SUNNY     63  59  88 S9        29.87F
$$

 ***** WEATHER ACROSS CENTRAL AND WESTERN NORTH DAKOTA  *****

CITY           SKY/WX    TMP DP  RH WIND       PRES   REMARKS
BISMARCK       MOCLDY    66  63  90 SE8       29.80S
MINOT          CLOUDY    80  60  50 S7        29.73S
JAMESTOWN      PTCLDY    70  68  93 S13       29.82F
MINOT AFB      CLOUDY    68  63  83 S1        29.71F
GARRISON         N/A     69  62  78 S3        29.77F
WILLISTON      MOCLDY    65  53  65 CALM      29.71F HAZE
DICKINSON      PTCLDY    65  53  65 S8        29.78
HETTINGER      PTCLDY    70  53  54 SE8       29.83F
$$

 *****  OTHER AIRPORT OBSERVATIONS IN OUR AREA  *****

CITY           SKY/WX    TMP DP  RH WIND       PRES   REMARKS
WALHALLA       FAIR      66  66 100 MISG      29.76S
GRAFTON AIRPOR FAIR      66  66 100 SE8       29.78F
VALLEY CITY AR PTSUNNY   68  68 100 S10       29.83F
CANDO          FAIR      64  64 100 SE7       29.77F
CAVALIER APRT  FAIR      66  66 100 S6        29.76S FOG
GWINNER          N/A     68  66  94 SW10      29.86S
SHEYENNE NWR     N/A     65  64  96 S3        29.95S
ROLLA          CLOUDY    68  59  73 S7        29.79F
 ***** THE ABOVE OBSERVATIONS ARE NON NWS ARE NOT QUALITY
       CONTROLLED AND MAY MIS-REPORT RAIN FOR SNOW...
$$

  *****  WEATHER ACROSS NORTHERN MINNESOTA  *****

CITY           SKY/WX    TMP DP  RH WIND       PRES   REMARKS
FLAG ISLAND    CLEAR     66  64  94 S7        29.79F
WARROAD        CLEAR     66  63  88 SW9       29.81F
ROSEAU         CLEAR     66  61  82 S9        29.81S
HALLOCK        CLEAR     66  66 100 S13       29.77F
THF RVR FALLS  CLEAR    N/A N/A N/A S9        29.83S
BAUDETTE       CLEAR     65  62  90 S7        29.84S
WASKISH        CLEAR     64  63  94 S7        29.86F
CROOKSTON      PTCLDY    68  64  88 S13       29.82F
STEPHEN NDAWN    N/A     66  66 100 S12         N/A
GREENBUSH NDAW   N/A     66  64  94 S7          N/A
$$
  *****  WEATHER ACROSS CENTRAL AND WEST MINNESOTA  *****

CITY           SKY/WX    TMP DP  RH WIND       PRES   REMARKS
FOSSTON        CLEAR     63  61  94 S10       29.86F
BEMIDJI        CLEAR     63  62  95 S6        29.89F
PARK RAPIDS    CLOUDY    64  61  90 S8        29.92F
ELBOW LAKE     FAIR      64  63  97 S10       29.91F
WADENA         CLOUDY    63  61  94 S6        29.92F
DETROIT LAKES  CLEAR     64  63  94 SE7       29.91S
MOORHEAD       PTCLDY    66  64  94 S13       29.86F
FERGUS FALLS   CLEAR     64  64 100 S9        29.89F
MORRIS MN      CLEAR     63  61  94 SE8       29.91F FOG
STAPLES        CLOUDY    63  63 100 S8        29.94S
$$
  *****  WEATHER ELSEWHERE ACROSS MINNESOTA  *****

CITY           SKY/WX    TMP DP  RH WIND       PRES   REMARKS
DULUTH         CLEAR     63  60  90 SW10      29.96F
INTRNTL FALLS  CLEAR     64  62  93 VRB6      29.87F
ELY            CLEAR     63  59  88 SW5       29.93F
CLOQUET        CLEAR     63  59  88 SW6       29.96F FOG
WHEATON        CLEAR     59  57  94 SE7       29.90F
BRAINERD       CLOUDY    63  61  93 S9        29.96S
HIBBING        PTCLDY    60  59  96 S3        29.93F
ALEXANDRIA     CLEAR     65  63  93 S8        29.95F
SAINT CLOUD    CLEAR     58  58 100 SE6       29.97S FOG
MINNEAPOLIS    MOCLDY    63  61  93 SE6       29.99F FOG
$$

  *****  WEATHER ACROSS SOUTH DAKOTA  *****

CITY           SKY/WX    TMP DP  RH WIND       PRES   REMARKS
SIOUX FALLS    MOCLDY    63  60  90 S12       29.99F
BROOKINGS      CLOUDY    64  61  88 S15       29.99S
WATERTOWN      MOCLDY    63  62  97 S12       29.94S
HURON          CLEAR     66  65  96 S12       29.90F
SISSETON         N/A     65  63  93 S7        29.87F
ABERDEEN       CLEAR     65  63  93 S9        29.87F
MITCHELL       CLEAR     66  65  96 S10       29.94S
PIERRE         CLEAR     74  58  57 S7        29.85S
MOBRIDGE       PTCLDY    70  66  87 SE10      29.82F
RAPID CITY     PTCLDY    70  44  39 S8        29.90F
$$

  *****  SOME WEATHER IN NEARBY STATES *****

CITY           SKY/WX    TMP DP  RH WIND       PRES   REMARKS
GLASGOW MT     PTCLDY    74  47  38 N3        29.69S HAZE
GREAT FALLS MT PTCLDY    63  50  62 W8        29.81R HAZE
CHEYENNE WY    PTCLDY    62  42  47 SW7       30.16F
SCOTTSBLUFF NE PTCLDY    75  41  29 S14       30.02F
OMAHA NE       PTCLDY    67  62  84 S6        30.04F
DES MOINES IA  PTCLDY    66  62  87 SE3       30.04F
DAVENPORT IA   FOG       60  59  96 CALM      30.04F VSB 1/4
CHICAGO IL     CLOUDY    65  64  97 CALM      30.03S FOG
EAU CLAIRE WI  CLEAR     60  58  92 CALM      30.02F
LA CROSSE WI   CLEAR     60  59  96 SE3       30.03F
$$

  *****  SOME NATIONAL WEATHER *****

CITY           SKY/WX    TMP DP  RH WIND       PRES   REMARKS
LA GUARDIA NY  MOCLDY    74  60  61 SW8       30.08F
RALEIGH NC     MOCLDY    67  61  81 CALM      30.14F
ATLANTA GA     CLOUDY    73  63  70 SE3       30.11F
NEW ORLEANS LA PTCLDY    75  67  76 S3        30.01F
OKLAHOMA CITY  PTCLDY    73  66  78 NE7       29.99F
ALBUQUERQUE NM PTCLDY    72  49  44 W5        30.25R
SALT LAKE CITY MOCLDY    82  44  26 S13       29.89R
LOS ANGELES CA CLEAR     73  67  81 SW9       29.85S
BOISE ID       CLOUDY    73  50  44 S5        29.87R
SEATTLE WA     HVY RAIN  56  54  93 SW10      29.79R FOG
$$

*** WEATHER ACROSS MANITOBA...SASKATCHEWAN AND ONTARIO ***
                ***ONTARIO***

CITY           SKY/WX    TMP DP  RH WIND       PRES   REMARKS
GERALDTON      FOG       63  61  94 SW10      29.91F VSB 1
THUNDER BAY    MOCLDY    55  55 100 CALM      29.93F
SIOUX LOOKOUT  CLOUDY    66  64  94 S7        29.83F
TORONTO        CLOUDY    68  59  73 CALM      30.06S
BIG TROUT LK   MOCLDY    68  57  68 SW9       29.60F
PICKLE LAKE    NOT AVBL
DRYDEN         CLOUDY    66  64  94 SW12      29.82F
KENORA         MOCLDY    68  66  94 SW14G22   29.80F
$$
                *** MANITOBA***

CITY           SKY/WX    TMP DP  RH WIND       PRES   REMARKS
BRANDON        MOCLDY    59  57  94 NE3       29.75F SMOKE
DAUPHIN        MOCLDY    64  55  72 SW7       29.71S
ISLAND LAKE    PTCLDY    68  64  88 SW8       29.58F
PILOT MOUND      N/A    N/A N/A N/A S5          N/A
THE PAS        PTCLDY    64  63  94 VRB2      29.67S
THOMPSON       CLOUDY    54  52  94 N9        29.70R
WINNIPEG       PTCLDY    68  66  94 S6        29.75S
LYNN LAKE      CLOUDY    54  52  94 MISG      29.75S
CHURCHILL      CLOUDY    48  46  93 E15G23    29.78S FOG
$$
                ***SASKATCHEWAN***

CITY           SKY/WX    TMP DP  RH WIND       PRES   REMARKS
ESTEVAN          N/A     68  54  60 SE12      29.72F SMOKE
KINDERSLEY     MOCLDY    66  52  59 S9        29.64F
LLOYDMINSTER   CLEAR     63  50  63 S13       29.50F
PRINCE ALBERT  CLOUDY    61  59  94 E5        29.61F
REGINA         CLOUDY    68  54  60 SE8       29.68R SMOKE
YORKTON        CLEAR     63  55  77 S9        29.70F
N. BATTLEFORD    N/A     70  52  52 SE12G20   29.58S
LA RONGE       MOCLDY    64  52  63 E10       29.64F
SASKATOON      CLOUDY    72  52  49 S16G22    29.66R
SWIFT CURRENT  CLEAR     70  50  49 N8        29.68F HAZE
$$
NOTE: THESE ARE AUTOMATED STATIONS WITH LIMITED QUALITY CONTROL
      "FAIR" INDICATES FEW OR NO CLOUDS BELOW 12,000 FEET WITH NO
      SIGNIFICANT WEATHER AND/OR OBSTRUCTIONS TO VISIBILITY.
      SKY/WX - SKY CONDITION AND SIGNIFICANT WEATHER.
      TMP - AIR TEMPERATURE.    DP   - DEWPOINT TEMPERATURE.
      RH  - RELATIVE HUMIDITY.  PRES - PRESSURE.
      HX  - HEAT INDEX.         WCI  - WIND CHILL INDEX.
$



USA.gov is the U.S. government's official web portal to all federal, state and local government web resources and services.